FW6919 Weather Reports


Display with metric or nautical units.
time (UTC)temp
F
wind
direction
speed
MPH
gust
MPH
rain 1hr
in
rain 24hr
in
rain mn
in
humidity
%
barometer
mb
20260509034512 73 59 2.0 4.0 0.00 0.00 0.01 83 1011.4
20260509034013 73 57 3.0 5.0 0.00 0.00 0.01 83 1011.4
20260509033514 73 56 1.0 5.0 0.00 0.00 0.01 83 1011.6
20260509033014 73 60 2.0 6.0 0.00 0.00 0.01 83 1011.6
20260509032512 73 82 1.0 6.0 0.00 0.00 0.01 83 1011.4
20260509032028 73 84 3.0 5.0 0.00 0.00 0.01 83 1011.3
20260509031527 73 109 2.0 7.0 0.00 0.00 0.01 83 1011.0
20260509031028 73 0 0.0 8.0 0.00 0.00 0.01 83 1010.5
20260509030528 73 144 3.0 8.0 0.00 0.00 0.01 83 1010.0
20260509030029 73 151 5.0 8.0 0.00 0.00 0.01 83 1010.1
20260509025528 73 125 4.0 7.0 0.00 0.00 0.01 83 1010.1
20260509025027 73 145 3.0 8.0 0.00 0.00 0.01 83 1010.1
20260509024526 73 144 1.0 10.0 0.00 0.00 0.01 83 1010.1
20260509024027 73 149 6.0 10.0 0.00 0.00 0.01 83 1009.9
20260509023526 73 134 3.0 11.0 0.00 0.00 0.01 82 1009.6
20260509023028 73 126 7.0 11.0 0.00 0.00 0.01 82 1009.5
20260509022525 73 163 6.0 11.0 0.00 0.00 0.01 82 1009.4
20260509022026 73 193 8.0 11.0 0.00 0.00 0.01 82 1009.1
20260509021526 73 206 7.0 11.0 0.00 0.00 0.01 82 1009.2
20260509021025 73 163 6.0 10.0 0.00 0.00 0.01 82 1009.4
20260509020525 73 171 7.0 11.0 0.00 0.00 0.01 81 1009.1
20260509020025 73 197 6.0 11.0 0.00 0.00 0.01 81 1009.0
20260509015525 73 170 5.0 11.0 0.00 0.00 0.01 81 1009.1
20260509015025 73 157 6.0 9.0 0.00 0.00 0.01 81 1009.3
20260509014525 73 171 5.0 8.0 0.00 0.00 0.01 81 1009.4
20260509014025 73 183 3.0 8.0 0.00 0.00 0.01 81 1009.6
20260509013524 73 163 2.0 7.0 0.00 0.00 0.01 81 1009.7
20260509013024 73 142 2.0 7.0 0.00 0.00 0.01 81 1009.6
20260509012526 73 135 7.0 7.0 0.00 0.00 0.01 81 1009.6
20260509012024 73 142 3.0 6.0 0.00 0.00 0.01 80 1009.7
20260509011525 73 155 2.0 7.0 0.00 0.00 0.01 80 1009.8
20260509011026 73 144 3.0 7.0 0.00 0.00 0.01 80 1009.6
20260509010524 73 162 4.0 7.0 0.00 0.00 0.01 80 1009.5
20260509010023 73 152 3.0 9.0 0.00 0.00 0.01 80 1009.5
20260509005523 73 146 4.0 10.0 0.00 0.00 0.01 80 1009.2
20260509005023 73 188 4.0 11.0 0.00 0.00 0.01 80 1009.2
20260509004522 73 160 7.0 11.0 0.00 0.00 0.01 79 1008.9
20260509004023 73 175 3.0 9.0 0.00 0.00 0.01 79 1009.0
20260509003522 73 158 5.0 11.0 0.00 0.00 0.01 79 1009.0
20260509003025 73 194 4.0 14.0 0.00 0.00 0.01 79 1008.9
20260509002522 73 169 6.0 14.0 0.00 0.00 0.01 79 1008.8
20260509002023 73 161 8.0 12.0 0.00 0.00 0.01 79 1008.8
20260509001522 73 156 5.0 12.0 0.00 0.00 0.01 78 1008.7
20260509001023 73 157 6.0 12.0 0.00 0.00 0.01 78 1008.8
20260509000523 73 153 7.0 11.0 0.00 0.00 0.01 78 1008.8
20260509000024 73 161 6.0 9.0 0.00 0.00 0.01 78 1009.0
20260508235522 73 162 4.0 10.0 0.00 0.00 0.01 78 1009.1
20260508235022 73 175 3.0 10.0 0.00 0.00 0.01 78 1009.2
20260508234523 73 170 2.0 10.0 0.00 0.00 0.01 77 1009.3
20260508234022 73 155 3.0 11.0 0.00 0.00 0.01 77 1009.3
20260508233520 74 202 9.0 14.0 0.00 0.00 0.01 77 1009.4
20260508233021 74 219 7.0 14.0 0.00 0.00 0.01 76 1009.4
20260508232522 74 189 4.0 11.0 0.00 0.00 0.01 77 1009.3
20260508232020 74 197 6.0 11.0 0.00 0.00 0.01 76 1009.4
20260508231521 74 198 7.0 11.0 0.00 0.00 0.01 76 1009.6
20260508231020 74 153 4.0 10.0 0.00 0.00 0.01 76 1009.5
20260508230520 74 167 3.0 10.0 0.00 0.00 0.01 75 1009.6
20260508230019 74 150 3.0 10.0 0.00 0.00 0.01 75 1009.4
20260508225519 74 159 5.0 11.0 0.00 0.00 0.01 75 1009.4
20260508225018 74 159 5.0 12.0 0.00 0.00 0.01 75 1009.4
20260508224520 74 162 8.0 12.0 0.00 0.00 0.01 75 1009.5
20260508224018 75 178 8.0 13.0 0.00 0.00 0.01 74 1009.4
20260508223518 74 184 6.0 13.0 0.00 0.00 0.01 75 1009.4
20260508223018 75 194 6.0 13.0 0.00 0.00 0.01 74 1009.6
20260508222518 75 196 7.0 13.0 0.00 0.00 0.01 73 1009.6
20260508222017 75 136 8.0 13.0 0.00 0.00 0.01 73 1009.5
20260508221520 75 153 8.0 13.0 0.00 0.00 0.01 73 1009.5
20260508221017 75 200 9.0 13.0 0.00 0.00 0.01 73 1009.7
20260508220517 75 197 5.0 13.0 0.00 0.00 0.01 71 1009.7
20260508220019 75 192 5.0 14.0 0.00 0.00 0.01 70 1009.5
20260508215517 75 215 6.0 17.0 0.00 0.00 0.01 71 1009.5
20260508215016 75 170 5.0 17.0 0.00 0.00 0.01 71 1009.7
20260508214515 74 164 6.0 15.0 0.00 0.00 0.01 71 1009.7
20260508214016 75 182 5.0 16.0 0.00 0.00 0.01 70 1009.9
20260508213517 75 150 8.0 16.0 0.00 0.00 0.01 70 1009.8
20260508213015 75 184 7.0 14.0 0.00 0.00 0.01 70 1009.8
20260508212515 74 130 7.0 13.0 0.00 0.00 0.01 69 1009.9
20260508212017 74 208 6.0 14.0 0.00 0.00 0.01 70 1010.0
20260508211517 74 214 9.0 14.0 0.00 0.00 0.01 70 1010.0
20260508211015 74 130 4.0 13.0 0.00 0.00 0.01 70 1010.0
20260508210514 74 171 6.0 15.0 0.00 0.00 0.01 70 1010.2
20260508210014 74 173 6.0 15.0 0.00 0.00 0.01 71 1010.4
20260508205515 74 156 6.0 14.0 0.00 0.00 0.01 69 1010.5
20260508205013 74 140 10.0 14.0 0.00 0.00 0.01 69 1010.2
20260508204514 74 123 5.0 11.0 0.00 0.00 0.01 70 1010.1
20260508204014 74 129 8.0 11.0 0.00 0.00 0.01 71 1010.2
20260508203514 73 161 6.0 11.0 0.00 0.00 0.01 70 1010.2
20260508203014 73 164 5.0 12.0 0.00 0.00 0.01 71 1010.8
20260508202514 72 142 8.0 12.0 0.00 0.00 0.01 72 1011.3
20260508202013 72 18 7.0 10.0 0.00 0.00 0.01 73 1011.6
20260508201514 72 11 5.0 15.0 0.00 0.00 0.01 72 1011.8
20260508201012 72 13 3.0 15.0 0.00 0.00 0.01 72 1011.9
20260508200514 72 161 11.0 11.0 0.00 0.00 0.01 72 1012.2
20260508200012 72 177 3.0 14.0 0.00 0.00 0.01 72 1012.1
20260508195513 73 192 6.0 14.0 0.00 0.00 0.01 71 1012.1
20260508195013 73 182 5.0 10.0 0.00 0.00 0.01 71 1012.2
20260508194512 73 229 7.0 10.0 0.00 0.00 0.01 70 1012.0
20260508194011 73 209 8.0 12.0 0.00 0.00 0.01 71 1012.1
20260508193512 73 141 7.0 12.0 0.00 0.00 0.01 71 1011.9
20260508193013 73 171 5.0 10.0 0.00 0.00 0.01 71 1012.0
20260508192514 74 200 9.0 10.0 0.00 0.00 0.01 71 1011.9
20260508192014 74 185 4.0 9.0 0.00 0.00 0.01 71 1012.1
20260508191512 74 191 9.0 9.0 0.00 0.00 0.01 71 1012.1
20260508191014 73 134 7.0 13.0 0.00 0.00 0.01 71 1012.1
20260508190513 73 217 7.0 13.0 0.00 0.00 0.01 71 1012.2
20260508190013 73 183 13.0 13.0 0.00 0.00 0.01 71 1012.2
20260508185512 74 138 5.0 11.0 0.00 0.00 0.01 70 1012.2
20260508185014 74 195 5.0 11.0 0.00 0.00 0.01 70 1012.1
20260508184512 74 138 4.0 12.0 0.00 0.00 0.01 70 1012.2
20260508184010 74 178 4.0 12.0 0.00 0.00 0.01 69 1012.3
20260508183512 74 217 7.0 10.0 0.00 0.00 0.01 69 1012.4
20260508183014 74 197 4.0 10.0 0.00 0.00 0.01 69 1012.4
20260508182516 74 173 3.0 10.0 0.00 0.00 0.01 69 1012.4
20260508182012 73 228 9.0 11.0 0.00 0.00 0.01 69 1012.5
20260508181510 73 167 5.0 11.0 0.00 0.00 0.01 70 1012.6
20260508181014 73 159 5.0 9.0 0.00 0.00 0.01 69 1012.5
20260508180513 73 247 5.0 9.0 0.00 0.00 0.01 68 1012.7
20260508180011 73 219 8.0 9.0 0.00 0.00 0.01 69 1012.9
20260508175512 73 177 6.0 14.0 0.00 0.00 0.01 70 1013.0
20260508175012 73 157 5.0 14.0 0.00 0.00 0.01 69 1013.1
20260508174511 73 167 6.0 13.0 0.00 0.00 0.01 70 1013.1
20260508174014 73 196 10.0 13.0 0.00 0.00 0.01 68 1013.1
20260508173514 72 140 7.0 13.0 0.00 0.00 0.01 69 1013.3
20260508173011 72 193 9.0 10.0 0.00 0.00 0.01 69 1013.3
20260508172521 72 157 7.0 11.0 0.00 0.00 0.01 68 1013.4
20260508172020 72 204 8.0 12.0 0.00 0.00 0.01 68 1013.4
20260508171522 72 205 6.0 12.0 0.00 0.00 0.01 67 1013.6
20260508171021 72 229 5.0 10.0 0.00 0.00 0.01 68 1013.6
20260508170521 72 204 7.0 10.0 0.00 0.00 0.01 69 1013.8
20260508170020 71 163 6.0 11.0 0.00 0.00 0.01 69 1013.6
20260508165520 71 186 5.0 12.0 0.00 0.00 0.01 70 1013.8
20260508165019 71 150 5.0 12.0 0.00 0.00 0.01 70 1014.0
20260508164522 71 177 4.0 10.0 0.00 0.00 0.01 70 1013.9
20260508164019 71 246 9.0 10.0 0.00 0.00 0.01 72 1014.0
20260508163519 70 161 6.0 9.0 0.00 0.00 0.01 71 1014.2
20260508163021 70 205 3.0 11.0 0.00 0.00 0.01 72 1014.4
20260508162519 69 156 2.0 11.0 0.00 0.00 0.01 71 1014.5
20260508162018 69 130 8.0 12.0 0.00 0.00 0.01 72 1014.6
20260508161519 69 153 9.0 12.0 0.00 0.00 0.01 72 1014.6
20260508161017 69 175 6.0 10.0 0.00 0.00 0.01 72 1014.8
20260508160517 69 160 4.0 14.0 0.00 0.00 0.01 71 1014.8
20260508160018 69 180 3.0 14.0 0.00 0.00 0.01 71 1014.9
20260508155521 69 197 6.0 10.0 0.00 0.00 0.01 72 1014.9
20260508155019 68 161 8.0 10.0 0.00 0.00 0.01 72 1014.9
20260508154519 68 146 4.0 10.0 0.00 0.00 0.01 72 1014.9
20260508154017 68 142 2.0 11.0 0.00 0.00 0.01 72 1015.0
20260508153516 68 216 7.0 11.0 0.00 0.00 0.01 72 1015.1
20260508153020 68 183 5.0 10.0 0.00 0.00 0.01 73 1015.1
20260508152518 67 198 6.0 10.0 0.00 0.00 0.01 73 1015.1
20260508152018 67 176 4.0 10.0 0.00 0.00 0.01 73 1015.2
20260508151517 67 153 4.0 8.0 0.00 0.00 0.01 73 1015.2
20260508151015 67 167 4.0 9.0 0.00 0.00 0.01 72 1015.3
20260508150515 67 184 2.0 10.0 0.00 0.00 0.01 73 1015.2
20260508150015 67 169 5.0 10.0 0.00 0.00 0.01 72 1015.4
20260508145515 67 210 3.0 10.0 0.00 0.00 0.01 73 1015.4
20260508145014 66 169 5.0 10.0 0.00 0.00 0.01 73 1015.4
20260508144516 66 144 5.0 8.0 0.00 0.00 0.01 73 1015.4
20260508144015 66 190 4.0 12.0 0.00 0.00 0.01 74 1015.3
20260508143514 66 150 5.0 12.0 0.00 0.00 0.01 74 1015.3
20260508143014 65 140 8.0 10.0 0.00 0.00 0.01 75 1015.5
20260508142515 65 184 8.0 11.0 0.00 0.00 0.01 74 1015.5
20260508142014 65 152 4.0 11.0 0.00 0.00 0.01 74 1015.5
20260508141514 65 180 5.0 11.0 0.00 0.00 0.01 75 1015.6
20260508141016 65 173 5.0 9.0 0.00 0.00 0.01 76 1015.5
20260508140514 64 175 2.0 10.0 0.00 0.00 0.01 76 1015.3
20260508140016 64 202 4.0 10.0 0.00 0.00 0.01 77 1015.4
20260508135514 64 215 4.0 9.0 0.00 0.00 0.01 77 1015.6
20260508135015 64 211 5.0 12.0 0.00 0.00 0.01 77 1015.5
20260508134514 64 189 4.0 12.0 0.00 0.00 0.01 77 1015.4
20260508134014 64 165 5.0 11.0 0.00 0.00 0.01 78 1015.4
20260508133514 64 159 5.0 11.0 0.00 0.00 0.01 78 1015.4
20260508133013 64 208 3.0 10.0 0.00 0.00 0.01 81 1015.5
20260508132513 64 169 4.0 10.0 0.00 0.00 0.01 80 1015.5
20260508132013 63 180 2.0 8.0 0.00 0.00 0.01 82 1015.3
20260508131515 63 156 3.0 6.0 0.00 0.00 0.01 83 1015.3
20260508131014 63 149 2.0 6.0 0.00 0.00 0.01 84 1015.4
20260508130514 62 146 1.0 6.0 0.00 0.00 0.01 85 1015.4
20260508130013 62 117 3.0 3.0 0.00 0.00 0.01 86 1015.6
20260508125513 62 117 1.0 3.0 0.00 0.00 0.01 85 1015.5
20260508125015 62 117 2.0 3.0 0.00 0.00 0.01 86 1015.5
20260508124513 62 117 3.0 3.0 0.00 0.00 0.01 85 1015.6
20260508124012 62 0 0.0 3.0 0.00 0.00 0.01 85 1015.9
20260508123511 62 0 0.0 3.0 0.00 0.00 0.01 86 1015.8
20260508123012 62 0 0.0 4.0 0.00 0.00 0.01 86 1015.5
20260508122514 62 115 2.0 4.0 0.00 0.00 0.01 86 1015.5
20260508122010 62 114 3.0 4.0 0.00 0.00 0.01 85 1015.5
20260508121514 62 113 2.0 3.0 0.00 0.00 0.01 85 1015.7
20260508121013 62 112 2.0 6.0 0.00 0.00 0.00 85 1015.6
20260508120512 62 112 1.0 8.0 0.00 0.00 0.00 84 1015.5
20260508120011 62 135 2.0 8.0 0.00 0.00 0.00 84 1015.5
20260508115514 62 173 2.0 7.0 0.00 0.00 0.00 83 1015.7
20260508115010 62 279 3.0 7.0 0.00 0.00 0.00 83 1016.6
20260508114513 62 121 2.0 6.0 0.00 0.00 0.00 83 1015.9
20260508114010 62 121 5.0 6.0 0.00 0.00 0.00 83 1015.3
20260508113515 62 171 1.0 6.0 0.00 0.00 0.00 83 1015.7
20260508113014 62 171 5.0 5.0 0.00 0.00 0.00 84 1015.6
20260508112513 62 0 0.0 5.0 0.00 0.00 0.00 84 1015.6
20260508112012 62 176 1.0 5.0 0.00 0.00 0.00 85 1015.5
20260508111510 62 0 0.0 4.0 0.00 0.00 0.00 85 1015.4
20260508111013 62 184 1.0 7.0 0.00 0.00 0.00 85 1015.4
20260508110446 62 189 3.0 8.0 0.00 0.00 0.00 85 1015.4
20260508105943 62 148 6.0 8.0 0.00 0.00 0.00 84 1015.2
20260508105448 62 143 4.0 6.0 0.00 0.00 0.00 84 1015.3
20260508104946 62 155 2.0 5.0 0.00 0.00 0.00 84 1015.5
20260508104446 62 142 3.0 5.0 0.00 0.00 0.00 83 1015.4
20260508103945 62 46 3.0 3.0 0.00 0.00 0.00 83 1015.3
20260508103444 62 46 1.0 3.0 0.00 0.00 0.00 83 1015.4
20260508102948 62 45 1.0 5.0 0.00 0.00 0.00 82 1015.2
20260508102447 62 0 0.0 8.0 0.00 0.00 0.00 82 1015.3
20260508101946 62 348 2.0 8.0 0.00 0.00 0.00 83 1015.7
20260508101446 62 23 5.0 8.0 0.00 0.00 0.00 83 1016.0
20260508100943 62 307 5.0 5.0 0.00 0.00 0.00 83 1015.6
20260508100446 62 61 2.0 3.0 0.00 0.00 0.00 83 1014.9
20260508095943 62 0 0.0 4.0 0.00 0.00 0.00 83 1015.0
20260508095446 62 61 2.0 4.0 0.00 0.00 0.00 83 1014.9
20260508095042 62 59 1.0 3.0 0.00 0.00 0.00 83 1015.1
20260508094444 62 55 1.0 3.0 0.00 0.00 0.00 83 1015.0
20260508094042 62 51 2.0 3.0 0.00 0.00 0.00 83 1015.0
20260508093445 62 50 2.0 3.0 0.00 0.00 0.00 83 1015.1
20260508092944 62 50 2.0 3.0 0.00 0.00 0.00 82 1015.1
20260508092544 62 50 2.0 3.0 0.00 0.00 0.00 81 1015.2
20260508092042 62 50 2.0 3.0 0.00 0.00 0.00 81 1015.1
20260508091443 62 49 2.0 3.0 0.00 0.00 0.00 80 1015.1
20260508091044 62 0 0.0 3.0 0.00 0.00 0.00 80 1015.1
20260508090541 62 44 2.0 3.0 0.00 0.00 0.00 80 1015.2
20260508085945 63 0 0.0 1.0 0.00 0.00 0.00 79 1015.4
20260508085540 63 0 0.0 2.0 0.00 0.00 0.00 79 1015.1
20260508085040 63 0 0.0 2.0 0.00 0.00 0.00 79 1015.0
20260508084541 63 44 1.0 2.0 0.00 0.00 0.00 78 1015.1
20260508084041 63 0 0.0 2.0 0.00 0.00 0.00 78 1015.2
20260508083540 63 44 1.0 2.0 0.00 0.00 0.00 78 1015.4
20260508083040 63 44 2.0 4.0 0.00 0.00 0.00 77 1015.4
20260508082540 63 44 1.0 4.0 0.00 0.00 0.00 77 1015.4
20260508082040 63 0 0.0 3.0 0.00 0.00 0.00 77 1015.6
20260508081540 63 45 2.0 3.0 0.00 0.00 0.00 77 1015.7
20260508081040 63 0 0.0 2.0 0.00 0.00 0.00 76 1015.7
20260508080539 63 119 1.0 6.0 0.00 0.00 0.00 77 1015.7
20260508075946 63 0 0.0 6.0 0.00 0.00 0.00 77 1015.5
20260508075537 63 119 3.0 6.0 0.00 0.00 0.00 77 1015.4
20260508075040 63 107 3.0 4.0 0.00 0.00 0.00 77 1015.4
20260508074540 64 90 4.0 4.0 0.00 0.00 0.00 76 1015.6
20260508074041 64 351 2.0 4.0 0.00 0.00 0.00 76 1015.8
20260508073538 64 309 1.0 3.0 0.00 0.00 0.00 75 1016.1
20260508073040 64 309 1.0 4.0 0.00 0.00 0.00 74 1016.5
20260508072537 63 309 2.0 4.0 0.00 0.00 0.00 75 1016.7
20260508072039 63 0 0.0 4.0 0.00 0.00 0.00 75 1016.7
20260508071539 63 0 0.0 4.0 0.00 0.00 0.00 75 1016.7
20260508071039 63 309 2.0 4.0 0.00 0.00 0.00 75 1016.7
20260508070537 63 90 1.0 3.0 0.00 0.00 0.00 76 1016.7
20260508070038 63 90 2.0 3.0 0.00 0.00 0.00 76 1016.6
20260508065538 63 91 2.0 3.0 0.00 0.00 0.00 76 1016.7
20260508065037 63 15 2.0 3.0 0.00 0.00 0.00 76 1016.4
20260508064536 63 14 2.0 3.0 0.00 0.00 0.00 75 1016.4
20260508064037 63 15 2.0 3.0 0.00 0.00 0.00 75 1016.4
20260508063535 63 15 1.0 3.0 0.00 0.00 0.00 75 1016.4
20260508063040 63 0 0.0 0.0 0.00 0.00 0.00 75 1016.6
20260508062535 63 0 0.0 0.0 0.00 0.00 0.00 76 1016.5
20260508062036 63 0 0.0 3.0 0.00 0.00 0.00 76 1016.6
20260508061533 63 0 0.0 3.0 0.00 0.00 0.00 78 1016.7
20260508061035 62 18 3.0 3.0 0.00 0.00 0.00 77 1016.6
20260508060534 62 18 3.0 3.0 0.00 0.00 0.00 79 1016.8
20260508060034 62 18 1.0 3.0 0.00 0.00 0.00 78 1016.9
20260508055533 62 0 0.0 3.0 0.00 0.00 0.00 78 1016.7
20260508055036 62 0 0.0 4.0 0.00 0.00 0.00 78 1016.8
20260508054533 61 18 2.0 4.0 0.00 0.00 0.00 79 1016.9
20260508054033 61 18 2.0 4.0 0.00 0.00 0.00 80 1016.8
20260508053532 61 21 4.0 4.0 0.00 0.00 0.00 81 1016.9
20260508053034 61 0 0.0 0.0 0.00 0.00 0.00 81 1016.8
20260508052534 61 0 0.0 0.0 0.00 0.00 0.00 81 1016.9
20260508052033 61 0 0.0 0.0 0.00 0.00 0.00 81 1016.8
20260508051531 61 0 0.0 1.0 0.00 0.00 0.00 80 1016.8
20260508051032 61 0 0.0 1.0 0.00 0.00 0.00 80 1016.8
20260508050531 62 0 0.0 1.0 0.00 0.00 0.00 79 1017.0
20260508050033 62 0 0.0 0.0 0.00 0.00 0.00 80 1017.0
20260508045533 62 0 0.0 0.0 0.00 0.00 0.00 79 1017.0
20260508045034 62 0 0.0 0.0 0.00 0.00 0.00 78 1016.9
20260508044532 62 0 0.0 0.0 0.00 0.00 0.00 78 1016.9
20260508044030 62 0 0.0 2.0 0.00 0.00 0.00 78 1016.8
20260508043531 62 0 0.0 2.0 0.00 0.00 0.00 78 1017.0
20260508043031 62 0 0.0 0.0 0.00 0.00 0.00 78 1016.9
20260508042530 62 0 0.0 0.0 0.00 0.00 0.00 78 1016.9
20260508042030 62 0 0.0 1.0 0.00 0.00 0.00 77 1016.9
20260508041529 62 0 0.0 1.0 0.00 0.00 0.00 77 1016.7
20260508041030 62 0 0.0 1.0 0.00 0.00 0.00 77 1016.8
20260508040529 62 0 0.0 0.0 0.00 0.00 0.00 77 1016.7
20260508040031 62 0 0.0 0.0 0.00 0.00 0.00 76 1016.7
20260508035531 62 0 0.0 0.0 0.00 0.00 0.00 75 1016.8
20260508035028 63 0 0.0 0.0 0.00 0.00 0.00 75 1016.6